Oakland, MD

3:26 PM EDT on July 24, 2017 (GMT -0400)
Oakland

Weather History for K2G4 - June, 2013

Change the Weather History Date:

Saturday, June 22, 2013

  Actual Average (KMGW) Record (KMGW)
Temperature  
Mean Temperature 69 °F -  
Max Temperature 78 °F 81 °F 96 °F (1988)
Min Temperature 60 °F 60 °F 41 °F (1992)
Cooling Degree Days 4    
Growing Degree Days 19 (Base 50)    
Moisture  
Dew Point 61 °F    
Average Humidity 78    
Maximum Humidity 100    
Minimum Humidity 51    
Precipitation  
Precipitation 0.00 in - - ()
Sea Level Pressure  
Sea Level Pressure 30.29 in    
Wind  
Wind Speed 6 mph (SSW)    
Max Wind Speed 9 mph    
Max Gust Speed -    
Visibility 10 miles    
Events      
Averages and records for this station are not official NWS values.
T = Trace of Precipitation, MM = Missing Value Source: NWS Daily Summary

Daily Weather History Graph

Daily Weather History Graph

Search for Another Location

Airport or City:

Trip Planner

Search our weather history database for the weather conditions in past years. The results will help you decide how hot, cold, wet, or windy it might be!

Date:

Astronomy

Jun. 22, 2013 Rise Set
Actual Time 5:50 AM EDT 8:48 PM EDT
Civil Twilight 5:17 AM EDT 9:21 PM EDT
Nautical Twilight 4:36 AM EDT 10:02 PM EDT
Astronomical Twilight 3:48 AM EDT 10:50 PM EDT
Moon 8:01 PM EDT (6/22) 5:00 AM EDT (6/22)
Length of Visible Light 16h 03m
Length of Day
14h 58m
Waxing Gibbous, 99% of the Moon is Illuminated
Jun 22
Waxing Gibbous
Jun 23
Full
Jun 30
Last Quarter
Jul 8
New
Jul 15
First Quarter

Hourly Weather History & Observations

Time (EDT) Temp. Dew Point Humidity Pressure Visibility Wind Dir Wind Speed Gust Speed Precip Events Conditions
12:55 AM 62.6 °F 62.6 °F 100% 30.29 in 10.0 mi SE 8.1 mph - N/A   Mostly Cloudy
1:55 AM 60.8 °F 60.8 °F 100% 30.29 in 10.0 mi SSE 8.1 mph - N/A   Clear
2:15 AM 60.8 °F 60.8 °F 100% 30.30 in 10.0 mi South 8.1 mph - N/A   Clear
2:35 AM 60.8 °F 60.8 °F 100% 30.29 in 10.0 mi South 8.1 mph - N/A   Clear
2:55 AM 60.8 °F 60.8 °F 100% 30.29 in 10.0 mi South 6.9 mph - N/A   Clear
3:15 AM 60.8 °F 60.8 °F 100% 30.30 in 10.0 mi SSW 4.6 mph - N/A   Clear
3:35 AM 60.8 °F 60.8 °F 100% 30.29 in 10.0 mi SW 3.5 mph - N/A   Clear
3:55 AM 60.8 °F 60.8 °F 100% 30.29 in 10.0 mi South 4.6 mph - N/A   Clear
4:15 AM 60.8 °F 60.8 °F 100% 30.29 in 10.0 mi South 4.6 mph - N/A   Clear
4:35 AM 60.8 °F 60.8 °F 100% 30.28 in 10.0 mi South 5.8 mph - N/A   Clear
4:55 AM 60.8 °F 60.8 °F 100% 30.28 in 10.0 mi South 5.8 mph - N/A   Clear
5:15 AM 60.8 °F 60.8 °F 100% 30.28 in 10.0 mi South 6.9 mph - N/A   Clear
5:35 AM 60.8 °F 60.8 °F 100% 30.28 in 10.0 mi South 5.8 mph - N/A   Clear
5:55 AM 60.8 °F 60.8 °F 100% 30.28 in 10.0 mi South 4.6 mph - N/A   Clear
6:15 AM 60.8 °F 60.8 °F 100% 30.28 in 10.0 mi South 8.1 mph - N/A   Clear
6:35 AM 60.8 °F 60.8 °F 100% 30.28 in 10.0 mi South 5.8 mph - N/A   Clear
6:55 AM 60.8 °F 60.8 °F 100% 30.27 in 10.0 mi South 8.1 mph - N/A   Clear
7:15 AM 62.6 °F 62.6 °F 100% 30.27 in 10.0 mi South 8.1 mph - N/A   Clear
7:35 AM 62.6 °F 62.6 °F 100% 30.28 in 10.0 mi South 5.8 mph - N/A   Clear
7:55 AM 64.4 °F 64.4 °F 100% 30.28 in 10.0 mi South 6.9 mph - N/A   Clear
8:15 AM 66.2 °F 64.4 °F 94% 30.29 in 10.0 mi South 4.6 mph - N/A   Clear
8:35 AM 68.0 °F 64.4 °F 88% 30.31 in 10.0 mi West 3.5 mph - N/A   Clear
8:55 AM 69.8 °F 64.4 °F 83% 30.31 in 10.0 mi SW 4.6 mph - N/A   Clear
9:15 AM 69.8 °F 62.6 °F 78% 30.32 in 10.0 mi WSW 5.8 mph - N/A   Clear
9:35 AM 71.6 °F 64.4 °F 78% 30.32 in 10.0 mi WSW 6.9 mph - N/A   Clear
9:55 AM 71.6 °F 62.6 °F 73% 30.32 in 10.0 mi West 4.6 mph - N/A   Clear
10:15 AM 73.4 °F 62.6 °F 69% 30.33 in 10.0 mi West 5.8 mph - N/A   Scattered Clouds
10:35 AM 71.6 °F 62.6 °F 73% 30.33 in 10.0 mi West 6.9 mph - N/A   Overcast
10:55 AM 71.6 °F 62.6 °F 73% 30.34 in 10.0 mi West 3.5 mph - N/A   Mostly Cloudy
11:15 AM 71.6 °F 62.6 °F 73% 30.34 in 10.0 mi West 6.9 mph - N/A   Scattered Clouds
11:35 AM 73.4 °F 62.6 °F 69% 30.34 in 10.0 mi West 6.9 mph - N/A   Clear
11:55 AM 73.4 °F 62.6 °F 69% 30.33 in 10.0 mi West 6.9 mph - N/A   Clear
12:15 PM 73.4 °F 64.4 °F 73% 30.33 in 10.0 mi SW 8.1 mph - N/A   Scattered Clouds
12:35 PM 77.0 °F 62.6 °F 61% 30.33 in 10.0 mi West 6.9 mph - N/A   Clear
12:55 PM 77.0 °F 60.8 °F 57% 30.33 in 10.0 mi West 4.6 mph - N/A   Clear
1:15 PM 77.0 °F 60.8 °F 57% 30.33 in 10.0 mi West 6.9 mph - N/A   Scattered Clouds
1:35 PM 77.0 °F 60.8 °F 57% 30.33 in 10.0 mi West 5.8 mph - N/A   Scattered Clouds
1:55 PM 77.0 °F 60.8 °F 57% 30.33 in 10.0 mi NW 4.6 mph - N/A   Mostly Cloudy
2:15 PM 77.0 °F 62.6 °F 61% 30.31 in 10.0 mi WNW 5.8 mph - N/A   Scattered Clouds
2:35 PM 75.2 °F 60.8 °F 61% 30.31 in 10.0 mi WNW 5.8 mph - N/A   Mostly Cloudy
2:55 PM 77.0 °F 60.8 °F 57% 30.31 in 10.0 mi WSW 6.9 mph - N/A   Scattered Clouds
3:15 PM 77.0 °F 60.8 °F 57% 30.30 in 10.0 mi NW 5.8 mph - N/A   Clear
3:35 PM 77.0 °F 60.8 °F 57% 30.29 in 10.0 mi NW 5.8 mph - N/A   Scattered Clouds
3:55 PM 78.8 °F 60.8 °F 54% 30.29 in 10.0 mi WNW 5.8 mph - N/A   Clear
4:15 PM 78.8 °F 60.8 °F 54% 30.28 in 10.0 mi Calm Calm - N/A   Clear
4:35 PM 78.8 °F 60.8 °F 54% 30.28 in 10.0 mi West 5.8 mph - N/A   Clear
4:55 PM 77.0 °F 59.0 °F 54% 30.27 in 10.0 mi Calm Calm - N/A   Clear
5:15 PM 78.8 °F 59.0 °F 51% 30.26 in 10.0 mi WNW 4.6 mph - N/A   Scattered Clouds
5:35 PM 78.8 °F 59.0 °F 51% 30.25 in 10.0 mi Calm Calm - N/A   Scattered Clouds
5:55 PM 78.8 °F 59.0 °F 51% 30.24 in 10.0 mi Calm Calm - N/A   Scattered Clouds
6:15 PM 77.0 °F 60.8 °F 57% 30.24 in 10.0 mi Calm Calm - N/A   Mostly Cloudy
6:35 PM 77.0 °F 62.6 °F 61% 30.24 in 10.0 mi SSE 5.8 mph - N/A   Overcast
6:55 PM 73.4 °F 62.6 °F 69% 30.23 in 10.0 mi SE 8.1 mph - N/A   Mostly Cloudy
7:15 PM 73.4 °F 60.8 °F 65% 30.23 in 10.0 mi SSE 9.2 mph - N/A   Scattered Clouds
7:35 PM 73.4 °F 60.8 °F 65% 30.23 in 10.0 mi SSE 8.1 mph - N/A   Clear
7:55 PM 71.6 °F 60.8 °F 69% 30.23 in 10.0 mi SSE 6.9 mph - N/A   Clear
8:15 PM 69.8 °F 60.8 °F 73% 30.24 in 10.0 mi SSE 6.9 mph - N/A   Clear
8:35 PM 69.8 °F 60.8 °F 73% 30.25 in 10.0 mi SSE 6.9 mph - N/A   Clear
8:55 PM 68.0 °F 62.6 °F 83% 30.25 in 10.0 mi SSE 5.8 mph - N/A   Clear
9:15 PM 68.0 °F 60.8 °F 78% 30.25 in 10.0 mi SSE 5.8 mph - N/A   Clear
9:35 PM 68.0 °F 62.6 °F 83% 30.25 in 10.0 mi SSE 8.1 mph - N/A   Clear
9:55 PM 68.0 °F 62.6 °F 83% 30.25 in 10.0 mi SSE 6.9 mph - N/A   Clear
10:15 PM 66.2 °F 60.8 °F 83% 30.26 in 10.0 mi South 8.1 mph - N/A   Clear
10:35 PM 66.2 °F 60.8 °F 83% 30.26 in 10.0 mi South 6.9 mph - N/A   Clear
10:55 PM 64.4 °F 60.8 °F 88% 30.26 in 10.0 mi South 6.9 mph - N/A   Clear
11:15 PM 66.2 °F 60.8 °F 83% 30.26 in 10.0 mi South 8.1 mph - N/A   Clear
11:35 PM 66.2 °F 60.8 °F 83% 30.26 in 10.0 mi South 8.1 mph - N/A   Clear
11:55 PM 64.4 °F 60.8 °F 88% 30.27 in 10.0 mi South 8.1 mph - N/A   Clear